map of DCI home
Great Circle Mapper logo
DCI - Airport
Location
City:  Decimomannu, Sardinia, Italy
Name:Rafsu Decimomannu
ICAO / IATA:LIED / DCI

Details
Type:Airport (Aerodrome, Airfield)
Use:Military, International (customs port of entry)
Latitude:3921'15"N (39.354222)
Longitude:858'21"E (8.972481)
Datum:WGS 1984
Elevation:100 ft (30 m)
Variation:2.02E (WMM2015 magnetic declination)
0.10 annual change
Runways:2
Longest:9810 × 148 ft (2990 × 45 m), paved

Time
Time Zone:UTC+1 (DST+2)
Local Time:

Weather
METAR:LIED 231155Z 27012KT 9999 BKN030 23/07 Q1012 RMK BKN VIS MIN 9999 WIND THR35 28012KT WIND THR17 30016KT BLU

Related Locations
Nearby:
Farthest:CHT: 12018 mi / 19342 km
Waitangi [Tuuta], Chatham Islands, NZ

Find:

   beyond  
but within

Other Information
Maps:
NOTAMs:
Links:
Sources:

  
flag of Italy
flag of Sardinia
  

Airport Diagram

Airport diagram for DCI

Airport diagram (OBSOLETE) from NGA

Sectional Chart

Flight Planning
at skyvector.com

Satellite Image

Google Maps Satellite View

 

Copyright © 2004-2015 Karl L. Swartz. All rights reserved.
The Great Circle Mapper name and logo are trademarks of the Great Circle Mapper.
All other trademarks mentioned herein belong to their respective owners.
Please see credits for attibutions and further copyright information.

  Follow gcmap on Facebook Follow gcmap on Twitter Follow gcmap on Google+

hCard Microformat

Geo Microformat